Simultaneous Nadir Overpasses (SNOs) Predictions

Prediction of SNOs between NOAA-21 and PACE Satellite Orbit:

Table of predicted SNOs for the next 14.0 days since TLE Epoch: 10/11/2024
Index Date (NOAA-21) Time (NOAA-21) Lat,Lon (NOAA-21) SZA (NOAA-21 ) Date (PACE) Time (PACE) Lat,Lon (PACE) SZA (PACE ) Distance(km) Time Diff (sec)
1 10/13/2024 05:01:54 -79.91,-113.47 90.43 10/13/2024 05:02:37 -79.92,-113.58 90.43 2.27 43
2 10/13/2024 05:52:34 79.74, 55.48 89.28 10/13/2024 05:51:41 79.74, 55.46 89.31 0.45 53
3 10/15/2024 08:37:39 79.98, 11.92 90.48 10/15/2024 08:38:35 79.97, 12.04 90.43 2.64 56
4 10/15/2024 09:28:15 -79.73,-178.34 89.96 10/15/2024 09:27:37 -79.74,-178.48 89.92 2.97 38
5 10/17/2024 12:13:20 -79.98, 138.00 88.76 10/17/2024 12:14:29 -79.98, 138.02 88.79 0.79 69
6 10/17/2024 13:04:01 79.85, -53.36 91.02 10/17/2024 13:03:34 79.84, -53.25 91.02 2.29 27
7 10/19/2024 16:39:41 -79.83, 72.88 88.25 10/19/2024 16:39:25 -79.83, 72.91 88.25 0.56 16
8 10/21/2024 20:15:23 79.86,-161.30 92.56 10/21/2024 20:15:15 79.86,-161.26 92.56 0.65 8



Historial Predications of SNOs between NOAA-21 and PACE
